7L2IWN-13 Weather Reports


time (UTC)temp
F
wind
direction
speed
knots
gust
knots
rain 1hr
in
rain 24hr
in
rain mn
in
humidity
%
barometer
mb
20260502163422 52 240 0.0 0.0 0.00 0.00 0.00 89 1011.7
20260502161021 51 253 0.9 1.7 0.00 0.00 0.00 88 1011.6
20260502152222 52 291 0.0 0.0 0.00 0.00 0.00 88 1012.0
20260502151021 52 249 0.9 0.9 0.00 0.00 0.00 87 1011.9
20260502123421 57 323 0.9 1.7 0.00 0.00 0.00 76 1011.1
20260502122221 58 190 0.9 1.7 0.00 0.00 0.00 75 1011.0
20260502121021 58 229 0.9 1.7 0.00 0.00 0.00 73 1011.1
20260502115821 58 272 1.7 2.6 0.00 0.00 0.00 73 1010.8
20260502114620 58 235 1.7 4.3 0.00 0.00 0.00 73 1011.0
20260502113420 59 268 1.7 2.6 0.00 0.00 0.00 71 1010.5
20260502112220 60 226 0.9 2.6 0.00 0.00 0.00 69 1010.5
20260502111021 60 260 0.9 1.7 0.00 0.00 0.00 69 1010.2
20260502105821 61 274 0.9 1.7 0.00 0.00 0.00 66 1010.1
20260502104620 62 260 0.9 1.7 0.00 0.00 0.00 65 1009.6
20260502103424 62 234 1.7 1.7 0.00 0.00 0.00 62 1009.4
20260502101020 63 228 1.7 4.3 0.00 0.00 0.00 63 1009.3
20260502091020 67 240 2.6 4.3 0.00 0.20 0.00 58 1008.5
20260502071020 74 52 10.4 13.9 0.00 0.20 0.00 34 1006.3
20260502065821 75 45 8.7 12.2 0.00 0.20 0.00 34 1006.2
20260502064621 78 53 12.2 15.6 0.00 0.20 0.00 33 1005.7
20260502063420 79 328 0.9 2.6 0.00 0.20 0.00 27 1005.7
20260502062221 78 345 5.2 7.8 0.00 0.20 0.00 28 1005.5
20260502061020 79 357 0.9 2.6 0.00 0.20 0.00 29 1005.2
20260502055820 80 27 2.6 11.3 0.00 0.20 0.00 28 1005.3
20260502054620 79 358 4.3 7.8 0.00 0.20 0.00 29 1005.2
20260502053420 79 319 0.9 4.3 0.00 0.20 0.00 27 1005.0
20260502052220 79 3 6.1 10.4 0.00 0.20 0.00 28 1005.0
20260502051021 78 43 0.9 6.1 0.00 0.20 0.00 29 1005.1
20260502044620 77 78 6.1 14.8 0.00 0.20 0.00 29 1004.9
20260502043420 78 352 7.8 13.0 0.00 0.20 0.00 28 1005.2
20260502042221 77 226 8.7 15.6 0.00 0.20 0.00 28 1005.0
20260502041021 77 22 1.7 4.3 0.00 0.20 0.00 27 1005.3
20260502035821 76 248 6.1 11.3 0.00 0.20 0.00 27 1005.0
20260502034620 76 302 13.9 22.6 0.00 0.20 0.00 28 1005.5
20260502033421 75 296 14.8 27.8 0.00 0.20 0.00 28 1005.5
20260502032221 74 332 10.4 17.4 0.00 0.20 0.00 30 1005.2
20260502031020 75 297 8.7 13.0 0.00 0.20 0.00 30 1005.2
20260502025820 75 300 13.9 25.2 0.00 0.20 0.00 31 1005.1
20260502024621 74 281 14.8 20.0 0.00 0.20 0.00 30 1005.1
20260502022222 74 305 17.4 22.6 0.00 0.24 0.00 33 1005.0
20260502021020 74 277 6.1 15.6 0.00 0.24 0.00 33 1004.4
20260502015819 74 278 8.7 21.7 0.00 0.24 0.00 34 1004.4
20260502013421 73 299 18.2 27.8 0.00 0.25 0.00 33 1003.8
20260502012220 72 320 19.1 32.2 0.00 0.28 0.00 33 1004.1
20260502011021 72 291 19.1 25.2 0.00 0.30 0.00 33 1003.8
20260502005820 72 284 15.6 20.9 0.00 0.31 0.00 33 1003.8
20260502004620 72 292 10.4 13.0 0.00 0.32 0.00 35 1003.6
20260502003422 71 304 10.4 12.2 0.00 0.34 0.00 35 1003.2
20260502002224 71 248 7.0 11.3 0.00 0.35 0.00 36 1003.0
20260502001021 70 320 18.2 26.9 0.00 0.36 0.00 37 1003.0
20260501235822 70 286 12.2 15.6 0.00 0.39 0.00 38 1002.7
20260501234622 69 12 6.1 10.4 0.00 0.43 0.00 39 1003.0
20260501233422 68 320 10.4 14.8 0.00 0.46 0.00 39 1002.8
20260501232221 68 258 8.7 13.9 0.00 0.50 0.00 40 1002.4
20260501231023 68 321 11.3 17.4 0.00 0.52 0.00 39 1002.5
20260501225822 67 251 11.3 17.4 0.00 0.58 0.00 41 1002.1
20260501224621 67 230 4.3 7.8 0.00 0.61 0.00 43 1001.9
20260501223421 67 301 7.0 8.7 0.00 0.63 0.00 44 1001.8
20260501221023 63 158 7.0 11.3 0.00 0.71 0.00 60 1000.9
20260501215822 62 312 5.2 10.4 0.00 0.73 0.00 57 1001.0
20260501214620 63 328 12.2 19.1 0.00 0.79 0.00 49 1000.8
20260501213424 58 304 5.2 10.4 0.00 0.86 0.00 78 1001.2
20260501212222 59 278 2.6 6.1 0.00 0.95 0.00 74 1000.8
20260501211021 59 272 2.6 5.2 0.00 1.00 0.00 76 1000.5
20260501205822 59 235 0.0 1.7 0.00 1.06 0.00 68 1000.6
20260501204622 60 309 7.0 8.7 0.00 1.06 0.00 61 999.8
20260501203422 56 331 5.2 8.7 0.00 1.07 0.00 75 1000.0
20260501202222 53 246 1.7 4.3 0.00 1.08 0.00 84 999.7
20260501201021 54 250 2.6 4.3 0.00 1.08 0.00 83 999.5
20260501195820 57 257 1.7 6.1 0.00 1.08 0.00 76 999.4
20260501194621 55 195 4.3 7.0 0.00 1.09 0.00 80 999.1
20260501193419 58 177 4.3 6.1 0.00 1.12 0.00 74 998.6
20260501192219 59 257 5.2 8.7 0.00 1.20 0.00 67 998.6
20260501191021 58 273 1.7 4.3 0.00 1.20 0.00 72 998.4
20260501185820 56 342 8.7 13.9 0.00 1.20 0.00 67 998.4
20260501184620 57 325 6.1 12.2 0.00 1.24 0.00 76 997.7
20260501183421 53 311 7.0 13.9 0.00 1.30 0.00 87 997.1
20260501182220 49 339 1.7 6.1 0.00 1.36 0.00 99 996.7
20260501181020 48 337 0.9 1.7 0.00 1.41 0.00 99 996.1
20260501175821 48 260 4.3 4.3 0.00 1.43 0.00 99 995.6
20260501173420 48 189 1.7 1.7 0.00 1.48 0.00 99 995.6
20260501172220 48 336 1.7 1.7 0.00 1.49 0.00 99 995.1